Location: Cadenet
(43.7345°N, 5.3750°E)
Time: 06:02:25
(UTC+00:00)

CZ-4B R/B - Pass Details

Date: 18 February 2020
Orbit: 497 x 646 km, 97.8° (Epoch: 28 March)

Event Time Altitude Azimuth Distance (km) Brightness Sun altitude
Rises 04:16:03 0° 13° (NNE) 2,868 7.8 -25.5°
Reaches altitude 10° 04:18:13 10° 15° (NNE) 1,981 6.9 -25.1°
Maximum altitude 04:22:33 80° 102° (ESE) 645 4.1 -24.3°
Enters shadow 04:23:31 54° 178° (S) 772 4.4 -24.2°
